Location: Mouss�
(47.9236°N, 1.2701°W)
Time: 10:32:57
(UTC+00:00)

Gbstr 26 Del rocket - Pass Details

Date: 03 March 2021
Orbit: 492 x 1264 km, 51.8° (Epoch: 10 April)

Event Time Altitude Azimuth Distance (km) Brightness Sun altitude
Rises 19:52:44 0° 281° (W) 2,857 8.1 -20.8°
Reaches altitude 10° 19:54:52 10° 286° (WNW) 2,042 6.9 -21.1°
Maximum altitude 19:59:30 56° 5° (N) 878 3.8 -21.9°
Enters shadow 20:01:07 40° 59° (ENE) 1,131 4.0 -22.1°
